Regional Weather Roundup
Issued by NWS

Home | Current Version | Previous Version | Graphics & Text | Print | Product List | Glossary On
Versions: 1 2 3 4 5 6 7 8 9 10 11 12 13 14 15 16 17 18 19 20 21 22 23 24 25 26 27 28 29 30 31 32 33 34 35 36 37 38 39 40 41 42 43 44 45 46 47 48 49 50
000
ASUS43 KBIS 011420
RWRND

NORTH DAKOTA REGIONAL WEATHER ROUNDUP
NATIONAL WEATHER SERVICE BISMARCK ND
900 AM CDT WED OCT 01 2014

NOTE: "FAIR" INDICATES FEW OR NO CLOUDS BELOW 12,000 FEET WITH NO
SIGNIFICANT WEATHER AND/OR OBSTRUCTIONS TO VISIBILITY.


NDZ001>003-009>011-017-011500-
NORTHWEST NORTH DAKOTA

CITY           SKY/WX    TMP DP  RH WIND       PRES   REMARKS
WILLISTON      CLOUDY    53  49  86 W18       29.64R
MINOT          CLOUDY    54  51  90 W13       29.53R
MINOT AFB      CLOUDY    54  54 100 W10       29.52R
$$

NDZ018>021-031>035-040>046-011500-
SOUTHWEST NORTH DAKOTA

CITY           SKY/WX    TMP DP  RH WIND       PRES   REMARKS
BISMARCK       PTSUNNY   57  50  77 W12       29.65R
DICKINSON      CLOUDY    52  48  86 W20       29.69R
GARRISON         N/A     54  52  93 W18G26    29.58R
HETTINGER ARPT PTSUNNY   52  48  86 W18       29.75R
$$

NDZ004>008-012>016-024-026-027-054-011500-
NORTHEAST NORTH DAKOTA

CITY           SKY/WX    TMP DP  RH WIND       PRES   REMARKS
GRAND FORKS    CLOUDY    59  54  83 S15G23    29.57R
GRND FRKS AFB  CLOUDY    59  57  94 S14       29.57R
DEVILS LAKE    CLOUDY    55  50  82 SW18      29.53R
$$

NDZ022-023-025-028>030-036>039-047>053-011500-
SOUTHEAST NORTH DAKOTA

CITY           SKY/WX    TMP DP  RH WIND       PRES   REMARKS
FARGO          PTSUNNY   60  56  86 S14       29.64S
JAMESTOWN      MOSUNNY   54  51  90 SW10      29.62R
$$




USA.gov is the U.S. government's official web portal to all federal, state and local government web resources and services.